Time,TemperatureF,DewpointF,PressureIn,WindDirection,WindDirectionDegrees,WindSpeedMPH,WindSpeedGustMPH,Humidity,HourlyPrecipIn,Conditions,Clouds,dailyrainin,SoftwareType,DateUTC
2013-06-26 00:07:00,66.4,65.8,29.97,NW,315,1.1,-999.0,98,-99.99,,,0.00,Acu-Link.com,2013-06-26 04:07:00,
2013-06-26 00:22:00,66.2,65.6,29.98,WNW,292,1.1,-999.0,98,-99.99,,,0.00,Acu-Link.com,2013-06-26 04:22:00,
2013-06-26 00:38:00,65.8,65.2,29.97,West,270,0.0,-999.0,98,-99.99,,,0.00,Acu-Link.com,2013-06-26 04:38:00,
2013-06-26 00:53:00,65.8,65.2,29.96,West,270,0.0,-999.0,98,-99.99,,,0.00,Acu-Link.com,2013-06-26 04:53:00,
2013-06-26 01:08:00,65.7,65.1,29.96,West,270,1.7,-999.0,98,-99.99,,,0.00,Acu-Link.com,2013-06-26 05:08:00,
2013-06-26 01:23:00,65.7,65.1,29.97,West,270,0.0,-999.0,98,-99.99,,,0.00,Acu-Link.com,2013-06-26 05:23:00,
2013-06-26 01:38:00,65.7,65.1,29.95,WNW,292,0.0,-999.0,98,-99.99,,,0.00,Acu-Link.com,2013-06-26 05:38:00,
2013-06-26 01:54:00,65.7,65.1,29.94,NW,315,0.0,-999.0,98,-99.99,,,0.00,Acu-Link.com,2013-06-26 05:54:00,
2013-06-26 02:09:00,65.3,64.7,29.94,WNW,292,0.0,-999.0,98,-99.99,,,0.00,Acu-Link.com,2013-06-26 06:09:00,
2013-06-26 02:24:00,64.9,64.3,29.94,WNW,292,0.0,-999.0,98,-99.99,,,0.00,Acu-Link.com,2013-06-26 06:24:00,
2013-06-26 02:40:00,64.8,64.2,29.94,WNW,292,0.0,-999.0,98,-99.99,,,0.00,Acu-Link.com,2013-06-26 06:40:00,
2013-06-26 02:55:00,64.8,64.2,29.94,West,270,0.0,-999.0,98,-99.99,,,0.00,Acu-Link.com,2013-06-26 06:55:00,
2013-06-26 03:10:00,64.9,64.3,29.93,WNW,292,0.0,-999.0,98,-99.99,,,0.00,Acu-Link.com,2013-06-26 07:10:00,
2013-06-26 03:26:00,64.6,64.0,29.92,West,270,0.0,-999.0,98,-99.99,,,0.00,Acu-Link.com,2013-06-26 07:26:00,
2013-06-26 03:41:00,64.6,64.0,29.92,WNW,292,1.7,-999.0,98,-99.99,,,0.00,Acu-Link.com,2013-06-26 07:41:00,
2013-06-26 03:56:00,64.8,64.2,29.92,West,270,2.2,-999.0,98,-99.99,,,0.00,Acu-Link.com,2013-06-26 07:56:00,
2013-06-26 04:11:00,64.8,64.2,29.91,WNW,292,2.2,-999.0,98,-99.99,,,0.00,Acu-Link.com,2013-06-26 08:11:00,
2013-06-26 04:27:00,64.9,64.3,29.91,WNW,292,2.2,-999.0,98,-99.99,,,0.00,Acu-Link.com,2013-06-26 08:27:00,
2013-06-26 04:42:00,64.9,64.3,29.93,West,270,2.2,-999.0,98,-99.99,,,0.00,Acu-Link.com,2013-06-26 08:42:00,
2013-06-26 04:57:00,65.1,64.5,29.92,WNW,292,2.2,-999.0,98,-99.99,,,0.00,Acu-Link.com,2013-06-26 08:57:00,
2013-06-26 05:12:00,64.6,64.0,29.93,WNW,292,1.7,-999.0,98,-99.99,,,0.00,Acu-Link.com,2013-06-26 09:12:00,
2013-06-26 05:27:00,64.6,64.0,29.94,WNW,292,1.7,-999.0,98,-99.99,,,0.00,Acu-Link.com,2013-06-26 09:27:00,
2013-06-26 05:42:00,64.4,63.8,29.95,West,270,1.7,-999.0,98,-99.99,,,0.00,Acu-Link.com,2013-06-26 09:42:00,
2013-06-26 05:57:00,64.2,63.6,29.95,West,270,1.1,-999.0,98,-99.99,,,0.00,Acu-Link.com,2013-06-26 09:57:00,
2013-06-26 06:12:00,63.9,63.3,29.95,WNW,292,2.2,-999.0,98,-99.99,,,0.00,Acu-Link.com,2013-06-26 10:12:00,
2013-06-26 06:27:00,63.9,63.3,29.98,West,270,2.7,-999.0,98,-99.99,,,0.00,Acu-Link.com,2013-06-26 10:27:00,
2013-06-26 06:43:00,64.0,63.4,29.97,West,270,2.2,-999.0,98,-99.99,,,0.00,Acu-Link.com,2013-06-26 10:43:00,
2013-06-26 06:58:00,64.0,63.4,29.98,West,270,0.0,-999.0,98,-99.99,,,0.00,Acu-Link.com,2013-06-26 10:58:00,
2013-06-26 07:13:00,64.0,63.4,29.97,West,270,0.0,-999.0,98,-99.99,,,0.00,Acu-Link.com,2013-06-26 11:13:00,
2013-06-26 07:28:00,64.4,63.8,29.98,WNW,292,0.0,-999.0,98,-99.99,,,0.00,Acu-Link.com,2013-06-26 11:28:00,
2013-06-26 07:44:00,64.9,64.3,29.97,West,270,0.0,-999.0,98,-99.99,,,0.00,Acu-Link.com,2013-06-26 11:44:00,
2013-06-26 07:59:00,66.7,66.1,29.98,NW,315,0.0,-999.0,98,-99.99,,,0.00,Acu-Link.com,2013-06-26 11:59:00,
2013-06-26 08:14:00,67.8,67.2,29.97,West,270,0.0,-999.0,98,-99.99,,,0.00,Acu-Link.com,2013-06-26 12:14:00,
2013-06-26 08:29:00,68.9,68.3,29.97,West,270,0.0,-999.0,98,-99.99,,,0.00,Acu-Link.com,2013-06-26 12:29:00,
2013-06-26 08:44:00,71.2,70.6,29.98,West,270,0.0,-999.0,98,-99.99,,,0.00,Acu-Link.com,2013-06-26 12:44:00,
2013-06-26 09:00:00,73.8,73.2,29.98,WNW,292,0.0,-999.0,98,-99.99,,,0.00,Acu-Link.com,2013-06-26 13:00:00,
2013-06-26 09:15:00,76.1,75.5,29.99,West,270,0.0,-999.0,98,-99.99,,,0.00,Acu-Link.com,2013-06-26 13:15:00,
2013-06-26 09:30:00,79.2,78.6,29.97,WNW,292,0.0,-999.0,98,-99.99,,,0.00,Acu-Link.com,2013-06-26 13:30:00,
2013-06-26 09:45:00,81.3,80.7,29.96,NNW,337,0.0,-999.0,98,-99.99,,,0.00,Acu-Link.com,2013-06-26 13:45:00,
2013-06-26 10:01:00,84.0,79.3,29.97,East,90,2.2,-999.0,86,-99.99,,,0.00,Acu-Link.com,2013-06-26 14:01:00,
2013-06-26 10:16:00,84.2,82.9,29.96,NNW,337,0.0,-999.0,96,-99.99,,,0.00,Acu-Link.com,2013-06-26 14:16:00,
2013-06-26 10:31:00,85.6,83.0,29.95,NNW,337,2.2,-999.0,92,-99.99,,,0.00,Acu-Link.com,2013-06-26 14:31:00,
2013-06-26 10:46:00,87.1,80.9,29.95,NE,45,2.7,-999.0,82,-99.99,,,0.00,Acu-Link.com,2013-06-26 14:46:00,
2013-06-26 11:01:00,89.1,83.6,29.96,NNW,337,1.7,-999.0,84,-99.99,,,0.00,Acu-Link.com,2013-06-26 15:01:00,
2013-06-26 11:17:00,89.2,84.1,29.96,NNW,337,2.2,-999.0,85,-99.99,,,0.00,Acu-Link.com,2013-06-26 15:17:00,
2013-06-26 11:32:00,91.6,81.7,29.96,NNE,22,1.1,-999.0,73,-99.99,,,0.00,Acu-Link.com,2013-06-26 15:32:00,
2013-06-26 11:47:00,92.3,79.3,29.95,South,180,2.2,-999.0,66,-99.99,,,0.00,Acu-Link.com,2013-06-26 15:47:00,
2013-06-26 12:03:00,90.3,77.4,29.95,NW,315,0.0,-999.0,66,-99.99,,,0.00,Acu-Link.com,2013-06-26 16:03:00,
2013-06-26 12:18:00,93.4,77.4,29.96,ESE,112,4.7,-999.0,60,-99.99,,,0.00,Acu-Link.com,2013-06-26 16:18:00,
2013-06-26 12:33:00,94.3,76.7,29.94,WSW,247,2.7,-999.0,57,-99.99,,,0.00,Acu-Link.com,2013-06-26 16:33:00,
2013-06-26 12:49:00,95.7,78.5,29.94,NE,45,2.2,-999.0,58,-99.99,,,0.00,Acu-Link.com,2013-06-26 16:49:00,
2013-06-26 13:04:00,88.3,76.8,29.94,West,270,1.7,-999.0,69,-99.99,,,0.00,Acu-Link.com,2013-06-26 17:04:00,
2013-06-26 13:19:00,74.5,73.9,29.95,NNW,337,7.8,-999.0,98,-99.99,,,0.00,Acu-Link.com,2013-06-26 17:19:00,
2013-06-26 13:35:00,72.5,71.9,29.95,WSW,247,0.0,-999.0,98,-99.99,,,0.04,Acu-Link.com,2013-06-26 17:35:00,
2013-06-26 13:50:00,72.9,72.3,29.93,NW,315,2.7,-999.0,98,-99.99,,,0.05,Acu-Link.com,2013-06-26 17:50:00,
2013-06-26 14:05:00,76.5,75.9,29.92,West,270,0.0,-999.0,98,-99.99,,,0.05,Acu-Link.com,2013-06-26 18:05:00,
2013-06-26 14:20:00,78.4,77.8,29.92,SE,135,1.1,-999.0,98,-99.99,,,0.05,Acu-Link.com,2013-06-26 18:20:00,
2013-06-26 14:36:00,79.9,79.3,29.92,SSE,157,2.2,-999.0,98,-99.99,,,0.05,Acu-Link.com,2013-06-26 18:36:00,
2013-06-26 14:51:00,87.8,86.8,29.93,NNE,22,0.0,-999.0,97,-99.99,,,0.05,Acu-Link.com,2013-06-26 18:51:00,
2013-06-26 15:06:00,90.1,83.8,29.91,South,180,3.2,-999.0,82,-99.99,,,0.05,Acu-Link.com,2013-06-26 19:06:00,
2013-06-26 15:22:00,91.6,82.1,29.90,South,180,1.7,-999.0,74,-99.99,,,0.05,Acu-Link.com,2013-06-26 19:22:00,
2013-06-26 15:37:00,91.0,80.3,29.89,SE,135,1.1,-999.0,71,-99.99,,,0.05,Acu-Link.com,2013-06-26 19:37:00,
2013-06-26 15:52:00,91.0,81.1,29.89,ESE,112,0.0,-999.0,73,-99.99,,,0.05,Acu-Link.com,2013-06-26 19:52:00,
2013-06-26 16:07:00,90.9,78.4,29.89,ESE,112,3.2,-999.0,67,-99.99,,,0.05,Acu-Link.com,2013-06-26 20:07:00,
2013-06-26 16:23:00,89.1,79.7,29.89,SSE,157,0.0,-999.0,74,-99.99,,,0.05,Acu-Link.com,2013-06-26 20:23:00,
2013-06-26 16:38:00,88.2,80.8,29.88,ESE,112,0.0,-999.0,79,-99.99,,,0.05,Acu-Link.com,2013-06-26 20:38:00,
2013-06-26 16:53:00,84.2,79.2,29.88,SE,135,0.0,-999.0,85,-99.99,,,0.05,Acu-Link.com,2013-06-26 20:53:00,
2013-06-26 17:08:00,81.0,80.4,29.88,ESE,112,0.0,-999.0,98,-99.99,,,0.05,Acu-Link.com,2013-06-26 21:08:00,
2013-06-26 17:23:00,77.7,77.1,29.87,South,180,0.0,-999.0,98,-99.99,,,0.05,Acu-Link.com,2013-06-26 21:23:00,
2013-06-26 17:39:00,76.8,76.2,29.88,ESE,112,3.2,-999.0,98,-99.99,,,0.05,Acu-Link.com,2013-06-26 21:39:00,
2013-06-26 17:54:00,75.9,75.3,29.86,ESE,112,0.0,-999.0,98,-99.99,,,0.05,Acu-Link.com,2013-06-26 21:54:00,
2013-06-26 18:10:00,76.5,75.9,29.86,West,270,0.0,-999.0,98,-99.99,,,0.05,Acu-Link.com,2013-06-26 22:10:00,
2013-06-26 18:25:00,77.2,76.6,29.87,West,270,0.0,-999.0,98,-99.99,,,0.05,Acu-Link.com,2013-06-26 22:25:00,
2013-06-26 18:40:00,76.5,75.9,29.87,WNW,292,0.0,-999.0,98,-99.99,,,0.05,Acu-Link.com,2013-06-26 22:40:00,
2013-06-26 18:55:00,77.2,76.6,29.87,NNE,22,0.0,-999.0,98,-99.99,,,0.05,Acu-Link.com,2013-06-26 22:55:00,
2013-06-26 19:11:00,77.0,76.4,29.87,WNW,292,0.0,-999.0,98,-99.99,,,0.05,Acu-Link.com,2013-06-26 23:11:00,
2013-06-26 19:26:00,75.9,75.3,29.87,West,270,0.0,-999.0,98,-99.99,,,0.05,Acu-Link.com,2013-06-26 23:26:00,
2013-06-26 19:41:00,74.5,73.9,29.87,West,270,0.0,-999.0,98,-99.99,,,0.05,Acu-Link.com,2013-06-26 23:41:00,
2013-06-26 19:56:00,74.1,73.5,29.86,NNW,337,0.0,-999.0,98,-99.99,,,0.05,Acu-Link.com,2013-06-26 23:56:00,
2013-06-26 20:11:00,73.6,73.0,29.86,ESE,112,0.0,-999.0,98,-99.99,,,0.05,Acu-Link.com,2013-06-27 00:11:00,
2013-06-26 20:27:00,72.5,71.9,29.85,SSW,202,0.0,-999.0,98,-99.99,,,0.05,Acu-Link.com,2013-06-27 00:27:00,
2013-06-26 20:42:00,71.6,71.0,29.86,WNW,292,0.0,-999.0,98,-99.99,,,0.05,Acu-Link.com,2013-06-27 00:42:00,
2013-06-26 20:57:00,70.9,70.3,29.87,WNW,292,0.0,-999.0,98,-99.99,,,0.05,Acu-Link.com,2013-06-27 00:57:00,
2013-06-26 21:12:00,70.5,69.9,29.86,SSW,202,0.0,-999.0,98,-99.99,,,0.05,Acu-Link.com,2013-06-27 01:12:00,
2013-06-26 21:27:00,70.3,69.7,29.85,WSW,247,0.0,-999.0,98,-99.99,,,0.05,Acu-Link.com,2013-06-27 01:27:00,
2013-06-26 21:43:00,70.0,69.4,29.87,West,270,0.0,-999.0,98,-99.99,,,0.05,Acu-Link.com,2013-06-27 01:43:00,
2013-06-26 21:58:00,69.4,68.8,29.86,West,270,0.0,-999.0,98,-99.99,,,0.05,Acu-Link.com,2013-06-27 01:58:00,
2013-06-26 22:13:00,68.7,68.1,29.87,West,270,0.0,-999.0,98,-99.99,,,0.05,Acu-Link.com,2013-06-27 02:13:00,
2013-06-26 22:28:00,68.2,67.6,29.87,West,270,0.0,-999.0,98,-99.99,,,0.05,Acu-Link.com,2013-06-27 02:28:00,
2013-06-26 22:44:00,68.2,67.6,29.87,WNW,292,0.0,-999.0,98,-99.99,,,0.05,Acu-Link.com,2013-06-27 02:44:00,
2013-06-26 22:59:00,67.8,67.2,29.88,West,270,0.0,-999.0,98,-99.99,,,0.05,Acu-Link.com,2013-06-27 02:59:00,
2013-06-26 23:14:00,67.5,66.9,29.87,SW,225,0.0,-999.0,98,-99.99,,,0.05,Acu-Link.com,2013-06-27 03:14:00,
2013-06-26 23:30:00,67.3,66.7,29.89,West,270,0.0,-999.0,98,-99.99,,,0.05,Acu-Link.com,2013-06-27 03:30:00,
2013-06-26 23:45:00,66.9,66.3,29.89,West,270,0.0,-999.0,98,-99.99,,,0.05,Acu-Link.com,2013-06-27 03:45:00,